Location: Unspecified
(27.9647°N, 0.0000°E)
Time: 04:49:04
(UTC+00:00)

deb Delta - Visible Passes

Search period start: 04 April 2026 00:00
Search period end: 14 April 2026 00:00
Orbit: 680 x 873 km, 97.7° (Epoch: 29 March)

Date Brightness Start Highest point End Pass type
(mag) Time Alt. Az. Time Alt. Az. Time Alt. Az.
4 Apr ? 02:48:33 10° NNE 02:49:19 15° NNE 02:49:19 15° NNE visible
5 Apr ? 03:55:06 10° NNW 03:56:01 14° NNW 03:56:01 14° NNW visible
6 Apr ? 03:20:52 10° N 03:22:16 19° N 03:22:16 19° N visible
7 Apr ? 02:47:23 10° NNE 02:48:31 17° NNE 02:48:31 17° NNE visible
8 Apr ? 02:14:42 10° NE 02:14:46 10° NE 02:14:46 10° NE visible
8 Apr ? 03:53:55 10° NNW 03:55:13 16° NNW 03:55:13 16° NNW visible
9 Apr ? 03:19:42 10° N 03:21:28 23° N 03:21:28 23° N visible
10 Apr ? 02:46:13 10° NNE 02:47:43 20° NNE 02:47:43 20° NNE visible
11 Apr ? 02:13:29 10° NE 02:13:58 12° NE 02:13:58 12° NE visible
11 Apr ? 03:52:43 10° NNW 03:54:24 18° NW 03:54:24 18° NW visible
12 Apr ? 03:18:29 10° N 03:20:39 27° N 03:20:39 27° N visible
13 Apr ? 02:45:00 10° NNE 02:46:54 24° NNE 02:46:54 24° NNE visible
